Simultaneous Nadir Overpasses (SNOs) Predictions

Prediction of SNOs between AQUA and METOP-A Satellite Orbit:

Table of predicted SNOs for the next 14.0 days since TLE Epoch: 12/14/2018
Index Date (AQUA) Time (AQUA) Lat,Lon (AQUA) SZA (AQUA ) Date (METOP-A) Time (METOP-A) Lat,Lon (METOP-A) SZA (METOP-A ) Distance(km) Time Diff (sec)
1 12/15/2018 11:17:38 -74.70,-177.19 82.02 12/15/2018 11:16:25 -74.69,-177.17 82.02 1.34 73
2 12/15/2018 12:07:07 74.77, -9.74 98.06 12/15/2018 12:07:03 74.76, -9.64 98.05 3.10 4
3 12/15/2018 12:56:33 -74.80, 157.84 81.92 12/15/2018 12:57:44 -74.81, 157.81 81.91 1.58 71
4 12/18/2018 06:51:54 -74.69,-110.73 81.92 12/18/2018 06:50:41 -74.65,-110.87 81.94 6.17 73
5 12/18/2018 07:41:23 74.76, 56.73 98.17 12/18/2018 07:41:18 74.77, 56.77 98.17 1.34 5
6 12/18/2018 08:30:50 -74.84,-135.82 81.76 12/18/2018 08:31:59 -74.82,-135.77 81.79 2.83 69
7 12/21/2018 02:26:10 -74.68, -44.27 81.86 12/21/2018 02:24:57 -74.61, -44.58 81.92 12.53 73
8 12/21/2018 03:15:39 74.75, 123.18 98.22 12/21/2018 03:15:33 74.77, 123.18 98.23 1.40 6
9 12/21/2018 04:05:06 -74.83, -69.37 81.70 12/21/2018 04:06:14 -74.82, -69.35 81.72 1.38 68
10 12/23/2018 22:00:24 -74.63, 22.29 81.92 12/23/2018 21:59:11 -74.61, 21.83 81.92 13.76 73
11 12/23/2018 22:49:54 74.75,-170.38 98.22 12/23/2018 22:49:47 74.77,-170.41 98.23 1.72 7
12 12/23/2018 23:39:21 -74.83, -2.93 81.71 12/23/2018 23:40:28 -74.82, -2.94 81.72 1.05 67
13 12/26/2018 17:34:40 -74.64, 88.71 81.98 12/26/2018 17:33:27 -74.56, 88.11 82.02 19.76 73
14 12/26/2018 18:24:10 74.76,-103.96 98.16 12/26/2018 18:24:02 74.76,-104.01 98.17 1.68 8




NCC Satellite Simultaneous Nadir Overpasses (SNOs) Prediction Service
